Weather History for West Plains, MO

Change the Weather History Date:

Friday, December 21, 2012

  Actual Average Record
Temperature  
Mean Temperature 36 °F 35 °F  
Max Temperature 46 °F 45 °F 68 °F (1967)
Min Temperature 25 °F 25 °F 2 °F (1960)
Degree Days  
Heating Degree Days 29 30  
Month to date heating degree days 401 587  
Since 1 July heating degree days 1345 1439  
Cooling Degree Days 0 0  
Month to date cooling degree days 0 0  
Year to date cooling degree days 1739 1354  
Moisture  
Dew Point 10 °F    
Average Humidity 44    
Maximum Humidity 68    
Minimum Humidity 20    
Precipitation  
Precipitation 0.00 in 0.10 in 2.68 in (1984)
Month to date precipitation 1.80 2.81  
Year to date precipitation 31.72 45.39  
Sea Level Pressure  
Sea Level Pressure 30.29 in    
Wind  
Wind Speed 9 mph (NW)    
Max Wind Speed 20 mph    
Max Gust Speed 29 mph    
Visibility 10 miles    
Events      
T = Trace of Precipitation, MM = Missing Value Source: NWS Daily Summary

Daily Weather History Graph

Daily Weather History Graph

Search for Another Location

Airport:

Trip Planner

Search our weather history database for the weather conditions in past years. The results will help you decide how hot, cold, wet, or windy it might be!

Date:

Astronomy

Dec. 21, 2012 Rise Set
Actual Time 7:17 AM CST 4:55 PM CST
Civil Twilight 6:48 AM CST 5:24 PM CST
Nautical Twilight 6:15 AM CST 5:56 PM CST
Astronomical Twilight 5:43 AM CST 6:28 PM CST
Moon 12:36 PM CST (12/21) 1:10 AM CST (12/21)
Length of Visible Light 10h 35m
Length of Day
9h 37m
Waxing Gibbous, 65% of the Moon is Illuminated
Dec 21
Waxing Gibbous
Dec 28
Full
Jan 4
Last Quarter
Jan 11
New
Jan 18
First Quarter

Hourly Weather History & Observations

Time (CST) Temp. Windchill Dew Point Humidity Pressure Visibility Wind Dir Wind Speed Gust Speed Precip Events Conditions
12:53 AM 27.0 °F 16.1 °F 17.1 °F 66% 30.18 in 10.0 mi WNW 12.7 mph 21.9 mph N/A   Clear
1:53 AM 26.1 °F 13.6 °F 14.0 °F 60% 30.20 in 10.0 mi West 16.1 mph 23.0 mph N/A   Clear
2:53 AM 26.1 °F 14.5 °F 12.9 °F 58% 30.21 in 10.0 mi WNW 13.8 mph 21.9 mph N/A   Clear
3:53 AM 27.0 °F 14.7 °F 10.9 °F 51% 30.21 in 10.0 mi WNW 16.1 mph 21.9 mph N/A   Clear
4:53 AM 27.0 °F 15.6 °F 10.9 °F 51% 30.22 in 10.0 mi WNW 13.8 mph 20.7 mph N/A   Clear
5:53 AM 26.1 °F 16.8 °F 10.9 °F 53% 30.25 in 10.0 mi WNW 9.2 mph 17.3 mph N/A   Clear
6:53 AM 26.1 °F 14.5 °F 10.0 °F 51% 30.28 in 10.0 mi WNW 13.8 mph 19.6 mph N/A   Clear
7:53 AM 28.0 °F 18.1 °F 10.0 °F 47% 30.29 in 10.0 mi WNW 11.5 mph 18.4 mph N/A   Clear
8:53 AM 30.9 °F 21.2 °F 10.0 °F 42% 30.31 in 10.0 mi WNW 12.7 mph 23.0 mph N/A   Clear
9:53 AM 36.0 °F 28.0 °F 8.1 °F 31% 30.33 in 10.0 mi NW 11.5 mph 23.0 mph N/A   Clear
10:53 AM 39.0 °F 31.0 °F 5.0 °F 24% 30.32 in 10.0 mi NW 13.8 mph 24.2 mph N/A   Clear
11:53 AM 42.1 °F 35.2 °F 6.1 °F 23% 30.30 in 10.0 mi NNW 12.7 mph - N/A   Clear
12:53 PM 45.0 °F 39.3 °F 7.0 °F 21% 30.30 in 10.0 mi NW 11.5 mph 18.4 mph N/A   Clear
1:53 PM 45.0 °F 40.1 °F 8.1 °F 22% 30.29 in 10.0 mi NNW 9.2 mph - N/A   Clear
2:53 PM 46.0 °F 41.4 °F 8.1 °F 21% 30.30 in 10.0 mi WNW 9.2 mph - N/A   Clear
3:53 PM 44.1 °F 38.6 °F 6.1 °F 21% 30.30 in 10.0 mi WNW 10.4 mph - N/A   Clear
4:53 PM 39.9 °F 36.7 °F 6.1 °F 25% 30.31 in 10.0 mi NW 4.6 mph - N/A   Clear
5:53 PM 37.0 °F - 8.1 °F 30% 30.32 in 10.0 mi Calm Calm - N/A   Clear
6:53 PM 32.0 °F 28.7 °F 12.0 °F 44% 30.33 in 10.0 mi WNW 3.5 mph - N/A   Clear
7:53 PM 28.9 °F - 12.9 °F 51% 30.34 in 10.0 mi Calm Calm - N/A   Clear
8:53 PM 30.0 °F - 12.0 °F 47% 30.34 in 10.0 mi Calm Calm - N/A   Clear
9:53 PM 28.9 °F - 12.0 °F 49% 30.33 in 10.0 mi Calm Calm - N/A   Clear
10:53 PM 27.0 °F - 14.0 °F 58% 30.32 in 10.0 mi Calm Calm - N/A   Clear
11:53 PM 26.1 °F - 14.0 °F 60% 30.31 in 10.0 mi Calm Calm - N/A   Clear